Time,TemperatureF,DewpointF,PressureIn,WindDirection,WindDirectionDegrees,WindSpeedMPH,WindSpeedGustMPH,Humidity,HourlyPrecipIn,Conditions,Clouds,dailyrainin,SolarRadiationWatts/m^2,SoftwareType,DateUTC
2013-05-06 00:02:00,52.0,52.0,-100.00,NNE,19,3.0,7.0,100,0.00,,,0.78,0.000000,,2013-05-06 05:02:00,
2013-05-06 00:32:00,52.0,52.0,-100.00,NNE,16,3.0,6.0,100,0.00,,,0.68,0.000000,,2013-05-06 05:32:00,
2013-05-06 00:42:00,52.0,52.0,-100.00,NNE,16,3.0,6.0,100,0.00,,,0.68,0.000000,,2013-05-06 05:42:00,
2013-05-06 00:52:00,52.0,52.0,-100.00,NNE,16,3.0,6.0,100,0.00,,,0.68,0.000000,,2013-05-06 05:52:00,
2013-05-06 01:02:00,52.0,52.0,-100.00,NNE,16,3.0,6.0,100,0.00,,,0.68,0.000000,,2013-05-06 06:02:00,
2013-05-06 01:32:00,52.0,52.0,-100.00,North,4,3.0,6.0,100,0.00,,,0.61,0.000000,,2013-05-06 06:32:00,
2013-05-06 01:42:00,52.0,52.0,-100.00,North,4,3.0,6.0,100,0.00,,,0.61,0.000000,,2013-05-06 06:42:00,
2013-05-06 01:52:00,52.0,52.0,-100.00,North,4,3.0,6.0,100,0.00,,,0.61,0.000000,,2013-05-06 06:52:00,
2013-05-06 02:01:00,52.0,52.0,-100.00,North,4,3.0,6.0,100,0.00,,,0.61,0.000000,,2013-05-06 07:01:00,
2013-05-06 02:32:00,51.0,51.0,-100.00,North,359,4.0,7.0,100,0.02,,,0.53,0.000000,,2013-05-06 07:32:00,
2013-05-06 02:42:00,51.0,51.0,-100.00,North,359,4.0,7.0,100,0.02,,,0.53,0.000000,,2013-05-06 07:42:00,
2013-05-06 02:52:00,51.0,51.0,-100.00,North,359,4.0,7.0,100,0.02,,,0.53,0.000000,,2013-05-06 07:52:00,
2013-05-06 03:02:00,51.0,51.0,-100.00,North,359,4.0,7.0,100,0.02,,,0.53,0.000000,,2013-05-06 08:02:00,
2013-05-06 03:32:00,51.0,51.0,-100.00,NNE,19,2.0,6.0,100,0.01,,,0.42,0.000000,,2013-05-06 08:32:00,
2013-05-06 03:42:00,51.0,51.0,-100.00,NNE,19,2.0,6.0,100,0.01,,,0.42,0.000000,,2013-05-06 08:42:00,
2013-05-06 03:52:00,51.0,51.0,-100.00,NNE,19,2.0,6.0,100,0.01,,,0.42,0.000000,,2013-05-06 08:52:00,
2013-05-06 04:01:00,51.0,51.0,-100.00,NNE,19,2.0,6.0,100,0.01,,,0.42,0.000000,,2013-05-06 09:01:00,
2013-05-06 04:33:00,52.0,52.0,-100.00,NNE,13,3.0,5.0,100,0.01,,,0.37,0.000000,,2013-05-06 09:33:00,
2013-05-06 04:43:00,52.0,52.0,-100.00,NNE,13,3.0,5.0,100,0.01,,,0.37,0.000000,,2013-05-06 09:43:00,
2013-05-06 04:53:00,52.0,52.0,-100.00,NNE,13,3.0,5.0,100,0.01,,,0.37,0.000000,,2013-05-06 09:53:00,
2013-05-06 05:02:00,52.0,52.0,-100.00,NNE,13,3.0,5.0,100,0.01,,,0.37,0.000000,,2013-05-06 10:02:00,
2013-05-06 05:33:00,51.0,51.0,-100.00,SE,129,3.0,10.0,100,0.01,,,0.31,0.000000,,2013-05-06 10:33:00,
2013-05-06 05:42:00,51.0,51.0,-100.00,SE,129,3.0,10.0,100,0.01,,,0.31,0.000000,,2013-05-06 10:42:00,
2013-05-06 05:52:00,51.0,51.0,-100.00,SE,129,3.0,10.0,100,0.01,,,0.31,0.000000,,2013-05-06 10:52:00,
2013-05-06 06:02:00,51.0,51.0,-100.00,SE,129,3.0,10.0,100,0.01,,,0.31,0.000000,,2013-05-06 11:02:00,
2013-05-06 06:32:00,51.0,51.0,-100.00,NNE,15,4.0,8.0,100,0.03,,,0.26,0.000000,,2013-05-06 11:32:00,
2013-05-06 06:42:00,51.0,51.0,-100.00,NNE,15,4.0,8.0,100,0.03,,,0.26,0.000000,,2013-05-06 11:42:00,
2013-05-06 06:52:00,51.0,51.0,-100.00,NNE,15,4.0,8.0,100,0.03,,,0.26,0.000000,,2013-05-06 11:52:00,
2013-05-06 07:01:00,51.0,51.0,-100.00,NNE,15,4.0,8.0,100,0.03,,,0.26,0.000000,,2013-05-06 12:01:00,
2013-05-06 07:32:00,51.0,51.0,-100.00,SSE,168,2.0,11.0,100,0.00,,,-99.99,11.000000,,2013-05-06 12:32:00,
2013-05-06 07:42:00,51.0,51.0,-100.00,SSE,168,2.0,11.0,100,0.00,,,-99.99,11.000000,,2013-05-06 12:42:00,
2013-05-06 07:52:00,51.0,51.0,-100.00,SSE,168,2.0,11.0,100,0.00,,,-99.99,11.000000,,2013-05-06 12:52:00,
2013-05-06 08:01:00,51.0,51.0,-100.00,SSE,168,2.0,11.0,100,0.00,,,-99.99,11.000000,,2013-05-06 13:01:00,
2013-05-06 09:32:00,57.0,51.0,-100.00,SE,141,3.0,9.0,81,-99.99,,,0.17,376.000000,,2013-05-06 14:32:00,
2013-05-06 09:42:00,57.0,51.0,-100.00,SE,141,3.0,9.0,81,-99.99,,,0.17,376.000000,,2013-05-06 14:42:00,
2013-05-06 09:52:00,57.0,51.0,-100.00,SE,141,3.0,9.0,81,-99.99,,,0.17,376.000000,,2013-05-06 14:52:00,
2013-05-06 10:01:00,57.0,51.0,-100.00,SE,141,3.0,9.0,81,-99.99,,,0.17,376.000000,,2013-05-06 15:01:00,
2013-05-06 10:33:00,58.0,52.0,-100.00,South,183,4.0,9.0,80,0.00,,,0.17,412.000000,,2013-05-06 15:33:00,
2013-05-06 10:43:00,58.0,52.0,-100.00,South,183,4.0,9.0,80,0.00,,,0.17,412.000000,,2013-05-06 15:43:00,
2013-05-06 10:53:00,58.0,52.0,-100.00,South,183,4.0,9.0,80,0.00,,,0.17,412.000000,,2013-05-06 15:53:00,
2013-05-06 11:03:00,58.0,52.0,-100.00,South,183,4.0,9.0,80,0.00,,,0.17,412.000000,,2013-05-06 16:03:00,
2013-05-06 11:33:00,62.0,52.0,-100.00,South,169,3.0,7.0,71,0.00,,,0.17,449.000000,,2013-05-06 16:33:00,
2013-05-06 11:42:00,62.0,52.0,-100.00,South,169,3.0,7.0,71,0.00,,,0.17,449.000000,,2013-05-06 16:42:00,
2013-05-06 11:52:00,62.0,52.0,-100.00,South,169,3.0,7.0,71,0.00,,,0.17,449.000000,,2013-05-06 16:52:00,
2013-05-06 12:03:00,62.0,52.0,-100.00,South,169,3.0,7.0,71,0.00,,,0.17,449.000000,,2013-05-06 17:03:00,
2013-05-06 14:32:00,64.0,49.0,-100.00,ENE,60,3.0,8.0,59,-99.99,,,-99.99,427.000000,,2013-05-06 19:32:00,
2013-05-06 14:42:00,64.0,49.0,-100.00,ENE,60,3.0,8.0,59,-99.99,,,-99.99,427.000000,,2013-05-06 19:42:00,
2013-05-06 14:52:00,64.0,49.0,-100.00,ENE,60,3.0,8.0,59,-99.99,,,-99.99,427.000000,,2013-05-06 19:52:00,
2013-05-06 15:02:00,64.0,49.0,-100.00,ENE,60,3.0,8.0,59,-99.99,,,-99.99,427.000000,,2013-05-06 20:02:00,
2013-05-06 15:32:00,57.0,47.0,-100.00,West,276,3.0,11.0,69,0.00,,,0.16,257.000000,,2013-05-06 20:32:00,
2013-05-06 15:42:00,57.0,47.0,-100.00,West,276,3.0,11.0,69,0.00,,,0.16,257.000000,,2013-05-06 20:42:00,
2013-05-06 15:52:00,57.0,47.0,-100.00,West,276,3.0,11.0,69,0.00,,,0.16,257.000000,,2013-05-06 20:52:00,
2013-05-06 16:01:00,57.0,47.0,-100.00,West,276,3.0,11.0,69,0.00,,,0.16,257.000000,,2013-05-06 21:01:00,
2013-05-06 16:33:00,55.0,53.0,-100.00,South,169,2.0,5.0,92,0.06,,,-99.99,86.000000,,2013-05-06 21:33:00,
2013-05-06 16:43:00,55.0,53.0,-100.00,South,169,2.0,5.0,92,0.06,,,-99.99,86.000000,,2013-05-06 21:43:00,
2013-05-06 16:53:00,55.0,53.0,-100.00,South,169,2.0,5.0,92,0.06,,,-99.99,86.000000,,2013-05-06 21:53:00,
2013-05-06 17:03:00,55.0,53.0,-100.00,South,169,2.0,5.0,92,0.06,,,-99.99,86.000000,,2013-05-06 22:03:00,
2013-05-06 17:33:00,54.0,54.0,-100.00,NNE,23,2.0,3.0,100,0.01,,,0.21,67.000000,,2013-05-06 22:33:00,
2013-05-06 17:45:00,54.0,54.0,-100.00,NNE,23,2.0,3.0,100,0.01,,,0.21,67.000000,,2013-05-06 22:45:00,
2013-05-06 17:52:00,54.0,54.0,-100.00,NNE,23,2.0,3.0,100,0.01,,,0.21,67.000000,,2013-05-06 22:52:00,
2013-05-06 18:03:00,54.0,54.0,-100.00,NNE,23,2.0,3.0,100,0.01,,,0.21,67.000000,,2013-05-06 23:03:00,
2013-05-06 18:32:00,53.0,53.0,-100.00,NNW,346,3.0,6.0,100,0.03,,,0.19,19.000000,,2013-05-06 23:32:00,
2013-05-06 18:42:00,53.0,53.0,-100.00,NNW,346,3.0,6.0,100,0.03,,,0.19,19.000000,,2013-05-06 23:42:00,
2013-05-06 18:52:00,53.0,53.0,-100.00,NNW,346,3.0,6.0,100,0.03,,,0.19,19.000000,,2013-05-06 23:52:00,
2013-05-06 19:01:00,53.0,53.0,-100.00,NNW,346,3.0,6.0,100,0.03,,,0.19,19.000000,,2013-05-07 00:01:00,
2013-05-06 20:32:00,49.0,49.0,-100.00,North,357,1.0,4.0,100,-99.99,,,0.19,2.000000,,2013-05-07 01:32:00,
2013-05-06 20:42:00,49.0,49.0,-100.00,North,357,1.0,4.0,100,-99.99,,,0.19,2.000000,,2013-05-07 01:42:00,
2013-05-06 20:53:00,49.0,49.0,-100.00,North,357,1.0,4.0,100,-99.99,,,0.19,2.000000,,2013-05-07 01:53:00,
2013-05-06 21:02:00,49.0,49.0,-100.00,North,357,1.0,4.0,100,-99.99,,,0.19,2.000000,,2013-05-07 02:02:00,
2013-05-06 21:32:00,49.0,49.0,-100.00,ESE,119,1.0,3.0,100,0.00,,,0.19,0.000000,,2013-05-07 02:32:00,
2013-05-06 21:42:00,49.0,49.0,-100.00,ESE,119,1.0,3.0,100,0.00,,,0.19,0.000000,,2013-05-07 02:42:00,
2013-05-06 21:52:00,49.0,49.0,-100.00,ESE,119,1.0,3.0,100,0.00,,,0.19,0.000000,,2013-05-07 02:52:00,
2013-05-06 22:01:00,49.0,49.0,-100.00,ESE,119,1.0,3.0,100,0.00,,,0.19,0.000000,,2013-05-07 03:01:00,
2013-05-06 22:32:00,48.0,48.0,-100.00,SE,145,0.0,4.0,100,0.00,,,0.19,0.000000,,2013-05-07 03:32:00,
2013-05-06 22:43:00,48.0,48.0,-100.00,SE,145,0.0,4.0,100,0.00,,,0.19,0.000000,,2013-05-07 03:43:00,
2013-05-06 22:53:00,48.0,48.0,-100.00,SE,145,0.0,4.0,100,0.00,,,0.19,0.000000,,2013-05-07 03:53:00,
2013-05-06 23:03:00,48.0,48.0,-100.00,SE,145,0.0,4.0,100,0.00,,,0.19,0.000000,,2013-05-07 04:03:00,
2013-05-06 23:33:00,48.0,48.0,-100.00,North,357,1.0,3.0,100,0.00,,,0.19,0.000000,,2013-05-07 04:33:00,
2013-05-06 23:42:00,48.0,48.0,-100.00,North,357,1.0,3.0,100,0.00,,,0.19,0.000000,,2013-05-07 04:42:00,
2013-05-06 23:53:00,48.0,48.0,-100.00,North,357,1.0,3.0,100,0.00,,,0.19,0.000000,,2013-05-07 04:53:00,